SCP
0 0 0 0 0 0 0 0 0 0 -0 -0 -0 -0 0 0 0 0 0 -0 -0 0 -0 0 0 0 0 0 0 0 0 0 0 0 0 0 0 0 0 0 0 0 0 0 0 0 0 0 0 0 0 0 0 0
0 0 0 0 0 0 0 0 0 -0 -0 -0 -0 -0 -0 -0 0 0 -0 0 0 0 -0 -0 -0 -0 0 0 0 0 0 0 0 0 0 0 0 0 0 0 0 0 0 0 0 0 0 0 0 0 0 0 0 0
0 0 0 0 0 0 0 0 -0 -0 -0 -0 -0 -0 -0 -0 0 0 -0 0 -0 0 -0 -0 0 0 0 0 0 0 0 0 0 0 0 0 0 0 0 0 0 0 0 0 0 0 0 0 0 0 0 0 0 0
0 0 0 0 0 0 0 -0 -0 -0 -0 -0 -0 -0 -0 -0 -0 -0 -0 0 0 0 0 0 0 0 0 0 0 0 0 0 0 0 0 0 0 0 0 0 0 0 0 0 0 0 0 0 0 0 0 0 0 0
0 0 0 0 0 0 -0 -0 -0 -0 -0 -0 -0 -0 -0 -0 -0 -0 -0 0 -0 0 -0 0 0 0 0 -0 -0 -0 -0 0 -0 0 0 0 0 0 0 0 0 0 0 0 0 0 0 0 0 0 0 0 0 0
0 0 0 0 0 -0 -0 -0 -0 -0 -0 -0 -0 -0 -0 -0 -0 -0 -0 -0 -0 0 0 0 0 0 0 0 -0 0 -0 -0 -0 0 0 0 0 0 0 0 0 0 0 0 0 0 0 0 0 0 0 0 0 0
0 0 0 0 -0 -0 -0 -0 -0 -0 -0 -0 -0 -0 -0 -0 -0 -0 0 -0 -0 -0 0 0 0 -0 -0 -0 0 0 -0 0 0 0 0 0 0 0 0 0 0 0 0 0 0 0 0 0 0 0 0 0 0 0
0 0 0 -0 -0 -0 -0 -0 -0 -0 -0 -0 -0 -0 -0 -0 -0 0 0 -0 -0 0 0 0 -0 0 -0 0 0 0 0 -0 0 0 0 0 0 0 0 0 0 0 0 0 0 0 0 0 0 0 0 0 0 0
0 0 0 0 -0 -0 -0 -0 -0 -0 -0 -0 -0 -0 0 0 0 -0 -0 -0 -0 0 0 0 0 0 -0 0 0 0 0 0 0 0 0 0 0 0 0 0 0 0 0 0 0 0 0 0 0 0 0 0 0 0
0 0 0 -0 -0 -0 -0 -0 -0 -0 -0 -0 0 0 0 -0 0 0 0 0 0 0 0 0 0 0 0 0 0 0 0 0 0 0 0 0 0 0 0 0 0 0 0 0 0 0 0 0 0 0 0 -0 -0 -0
0 0 0 -0 -0 -0 -0 -0 -0 -0 -0 -0 0 0 0 0 0 0 0 0 0 0 -0 0 0 0 0 0 0 0 0 0 0 0 0 0 0 0 0 0 0 0 0 0 0 0 0 0 0 0 0 -0 -0 -0
0 0 0 -0 -0 -0 -0 -0 -0 -0 -0 -0 -0 -0 -0 0 0 0 0 0 0 0 0 0 0 0 0 0 0 0 0 0 0 0 0 0 0 0 0 0 0 0 0 0 0 0 0 0 0 0 0 0 -0 -0
0 0 -0 -0 -0 -0 -0 -0 -0 -0 -0 -0 -0 -0 0 0 0 0 0 0 0 0 0 0 0 0 0 0 0 0 0 0 0 0 0 0 0 0 0 0 0 0 0 0 0 0 0 -0 0 0 0 0 0 -0
0 0 -0 -0 -0 -0 -0 -0 -0 -0 0 -0 -0 -0 0 0 0 0 0 0 0 0 0 0 0 0 0 0 0 0 0 0 0 0 0 0 0 0 0 0 0 0 0 0 0 0 0 0 -0 0 0 -0 -0 0
0 0 0 -0 -0 -0 -0 -0 -0 0 0 -0 -0 0 -0 0 0 0 0 0 0 0 0 0 0 0 0 0 0 0 0 0 0 0 0 0 0 0 0 0 0 0 0 0 0 0 0 0 0 0 0 0 -0 -0
0 0 0 -0 0 -0 -0 0 0 0 0 0 -0 -0 -0 0 0 0 0 0 0 -0 -0 0 0 0 0 0 0 0 0 0 0 0 0 0 0 0 0 0 0 0 0 0 0 0 0 0 0 0 0 -0 -0 -0
0 0 -0 -0 -0 -0 0 0 0 0 0 0 0 0 0 0 0 0 0 0 0 0 0 0 0 0 0 0 0 0 0 0 0 0 0 0 0 0 0 0 0 0 0 0 0 0 0 0 0 0 0 -0 -0 -0
0 0 -0 0 0 0 0 0 0 0 0 0 0 0 0 0 0 0 0 0 0 0 0 0 0 0 0 0 0 0 0 0 0 0 0 0 0 0 0 0 0 0 0 0 0 0 0 0 0 0 0 0 0 -0
0 0 0 0 0 0 0 0 0 0 0 0 0 0 0 0 0 0 0 0 0 -0 0 0 0 0 0 0 0 0 0 0 0 0 0 0 0 0 0 0 0 0 0 0 0 0 0 0 0 0 0 0 0 0
-0 0 0 0 0 0 0 0 0 0 0 0 0 0 0 0 0 -0 0 0 0 0 0 0 0 0 0 0 0 0 0 0 0 0 0 0 0 0 0 0 0 0 0 0 0 0 0 0 0 0 0 0 0 0
0 0 0 0 0 0 0 0 0 0 0 0 0 0 0 0 0 0 0 0 0 0 0 0 0 0 0 0 0 0 0 0 0 0 0 0 0 0 0 0 0 0 0 0 0 0 0 0 0 0 0 0 0 0
0 0 0 0 0 0 0 0 0 0 0 0 0 0 0 0 0 0 0 0 0 0 0 0 0 0 0 0 0 0 0 0 0 0 0 0 0 0 0 0 0 0 0 0 0 0 0 0 0 0 0 0 0 0
0 0 0 0 0 0 0 0 0 0 0 0 0 0 0 0 0 -0 0 0 0 0 0 0 0 0 0 0 0 0 0 0 0 0 0 0 0 0 0 0 0 0 0 0 0 0 0 0 0 0 0 0 0 0
0 0 0 0 0 0 0 0 0 0 0 0 0 0 0 0 0 0 0 0 0 0 0 0 0 0 0 0 0 0 0 0 0 0 0 0 0 0 0 0 0 0 0 0 0 0 0 0 0 0 0 0 0 0
0 0 0 0 0 0 0 0 0 0 0 0 0 0 0 0 0 0 0 0 0 0 0 0 0 0 0 0 0 0 0 0 0 0 0 0 0 0 0 0 0 0 0 0 0 0 0 0 0 0 0 0 0 0
0 0 0 0 0 0 0 0 0 0 0 0 0 0 0 0 0 0 0 0 0 0 0 0 0 0 -0 0 0 0 0 0 0 0 0 0 0 0 0 0 0 0 0 0 0 0 0 0 0 0 0 0 0 0
0 0 0 0 0 0 0 0 0 0 0 0 0 0 0 0 0 0 0 0 -0 0 0 0 -0 0 0 0 0 0 0 0 0 0 0 0 0 0 0 0 0 0 0 0 0 0 0 0 0 0 0 0 0 0
0 0 0 0 -0 -0 -0 -0 -0 -0 0 0 0 0 0 0 0 0 0 0 -0 0 0 0 0 0 0 0 0 0 0 0 0 0 0 0 0 0 0 0 0 0 0 0 0 0 0 0 0 0 0 0 0 0
0 0 0 -0 0 0 -0 0 0 -0 0 0 0 0 -0 0 0 0 0 0 0 0 0 0 0 0 0 0 0 0 0 0 0 0 0 0 0 0 0 0 0 0 0 0 0 0 0 0 0 0 0 0 0 0
0 0 0 0 0 0 0 0 0 0 0 0 0 0 0 0 0 -0 -0 -0 0 0 0 0 0 0 0 0 0 0 0 0 0 0 0 0 0 0 0 0 0 0 0 0 0 0 0 0 0 0 0 0 0 0
0 0 0 0 0 0 0 0 0 0 0 -0 0 0 0 0 0 0 0 0 0 0 0 0 0 0 0 0 0 0 0 0 0 0 0 0 0 0 0 0 0 0 0 0 0 0 0 0 0 0 0 0 0 0
0 0 0 0 0 0 0 0 0 0 0 0 -0 0 0 -0 0 0 0 0 0 0 -0 0 0 0 0 0 0 0 0 0 0 0 0 0 0 0 0 0 0 0 0 0 0 0 0 0 0 0 0 0 0 0
0 0 0 0 0 0 0 0 0 -0 0 0 -0 -0 0 0 0 0 0 0 0 0 0 0 0 0 -0 0 0 0 0 0 0 0 0 0 0 0 0 0 0 0 0 0 0 0 0 0 0 0 0 0 0 0
Wind_Speed_500mb
59 59 59 58 57 56 53 50 50 50 48 45 43 42 41 44 48 52 31 17 18 20 29 13 13 18 24 28 17 36 18 5 14 14 17 16 17 18 13 12 20 8 11 10 15 11 9 48 20 10 15 27 38 48
59 59 59 58 57 57 55 53 50 50 48 44 41 40 40 42 44 47 18 7 11 18 18 20 9 9 11 16 18 19 19 13 15 12 7 13 16 4 17 10 21 8 9 8 6 3 9 11 10 9 17 28 34 40
59 60 59 58 58 59 57 56 50 49 49 44 43 39 40 39 43 46 34 20 14 21 25 26 19 4 13 15 13 10 14 21 11 14 18 14 23 16 14 10 3 5 15 1 13 12 16 17 2 18 25 28 33 34
60 60 59 60 60 60 59 59 52 49 47 46 40 37 36 38 44 40 18 4 6 16 12 6 4 3 9 11 11 10 13 17 15 20 22 10 7 20 9 10 10 6 15 17 23 12 36 5 39 44 34 38 37 40
60 60 61 61 62 62 63 60 55 49 45 44 40 39 33 37 35 12 8 18 9 10 8 8 12 6 4 8 11 12 12 17 16 6 7 7 6 3 5 4 8 12 10 12 15 43 35 45 48 53 55 53 43 36
61 61 62 63 65 65 64 62 55 45 43 42 41 35 32 23 2 18 3 8 11 13 11 5 8 4 11 5 10 13 20 17 13 11 10 10 7 7 6 4 5 16 22 22 33 49 53 56 53 48 50 56 56 56
61 61 62 65 67 66 65 57 49 48 46 42 35 29 20 7 15 7 2 13 14 6 9 1 2 23 6 8 5 12 13 14 14 6 7 5 13 7 4 1 18 34 39 46 46 52 56 49 62 59 56 59 53 52
61 61 63 66 67 65 60 51 59 51 40 31 20 10 18 17 9 6 3 12 5 7 11 6 5 13 19 2 5 7 7 7 10 4 6 17 12 10 3 18 30 44 45 41 49 52 62 71 64 56 55 54 57 55
59 60 63 66 66 61 51 62 59 47 29 15 11 16 15 8 2 4 5 12 17 9 11 7 7 2 18 3 7 5 5 3 2 1 9 8 7 5 10 26 35 36 38 43 56 55 56 61 63 61 58 59 51 50
58 59 61 64 63 51 55 63 57 45 14 13 8 4 2 3 8 8 5 4 7 9 9 7 15 12 23 16 6 4 5 2 4 8 3 6 8 24 25 27 24 29 35 46 57 59 64 64 64 65 58 52 50 46
57 57 59 62 54 49 60 56 51 46 24 8 4 7 10 6 2 8 9 10 9 5 14 8 10 9 5 12 6 9 3 4 3 5 7 4 6 7 22 22 24 28 33 45 51 53 49 52 56 65 49 40 30 27
55 55 58 57 44 53 52 49 50 46 31 18 6 8 1 3 10 9 4 7 8 5 10 8 9 17 9 4 1 5 7 9 7 2 4 2 7 17 22 20 25 28 36 41 50 53 52 46 53 49 45 46 36 29
54 53 57 44 41 49 49 48 46 33 23 9 8 6 9 9 4 3 4 4 4 8 9 12 6 15 8 3 1 6 3 8 5 7 3 9 11 21 18 20 23 26 32 35 46 50 51 54 53 43 42 53 52 52
54 53 49 33 46 49 55 49 36 20 7 6 8 7 6 4 5 6 8 10 16 14 17 13 12 8 4 2 4 6 8 3 6 6 8 11 17 17 19 19 21 27 29 32 39 40 45 53 55 57 56 56 62 66
55 51 32 47 59 53 53 41 21 8 2 9 8 6 6 8 6 12 14 7 9 13 14 13 4 11 7 3 4 7 3 2 4 6 8 12 14 17 18 17 20 25 26 28 33 36 38 43 49 51 53 58 58 61
58 40 32 52 45 45 45 26 10 6 5 7 10 12 9 11 3 10 10 8 15 17 16 10 2 4 2 4 4 6 6 2 6 17 24 14 14 15 15 18 20 19 22 24 28 30 32 36 38 42 52 56 56 61
56 22 50 49 44 42 31 13 4 5 8 9 13 19 13 2 2 6 8 11 13 13 5 5 2 11 4 5 5 6 3 7 16 22 20 15 12 12 14 16 18 21 22 24 25 27 30 30 33 37 42 44 46 49
54 53 44 42 47 38 10 7 4 7 11 18 16 21 10 8 1 6 7 7 13 15 16 8 1 2 5 7 4 3 9 18 14 13 13 13 11 11 12 15 18 19 21 24 23 28 27 26 29 31 30 30 32 39
53 42 30 40 41 26 4 5 6 8 12 15 21 22 15 4 2 3 6 5 7 8 7 0 2 5 4 6 5 8 12 7 16 19 15 14 11 9 10 11 13 16 18 19 20 19 21 22 22 24 26 28 35 35
33 28 26 39 28 9 7 9 8 11 11 11 16 16 10 7 6 14 8 3 5 3 3 5 5 10 12 11 5 6 6 3 9 17 21 17 12 10 10 9 8 10 13 15 16 17 17 22 20 21 26 31 31 31
12 25 37 23 14 6 9 9 13 12 15 20 24 12 17 17 14 2 4 12 6 2 4 4 15 10 12 12 9 7 5 5 5 4 13 16 12 12 11 10 8 7 10 10 9 12 18 14 18 20 21 25 28 25
15 37 17 12 6 7 11 14 14 15 15 23 22 29 11 6 13 8 17 6 11 2 13 14 17 17 14 11 10 9 9 10 10 14 15 18 14 11 11 9 6 11 9 9 10 12 12 12 16 17 18 19 24 27
29 18 11 6 7 8 15 12 10 10 8 10 16 3 8 10 12 20 12 10 5 17 14 17 20 14 18 16 13 12 12 11 12 11 15 14 12 12 11 10 9 10 11 10 10 11 12 12 14 15 16 17 18 20
21 6 6 6 7 10 12 3 7 14 13 17 8 14 13 19 16 12 8 19 24 21 21 22 20 18 16 13 12 9 11 10 12 14 15 15 15 14 12 11 10 10 10 10 10 9 10 10 9 12 13 14 15 17
6 7 8 10 8 7 7 7 7 8 7 10 12 10 6 11 7 8 15 16 30 30 27 23 19 17 15 14 16 13 15 15 15 14 16 13 15 16 15 13 11 10 9 9 9 8 7 7 7 8 9 10 14 15
6 7 9 4 7 8 5 7 6 12 17 20 8 5 6 7 7 6 3 16 24 33 25 21 17 12 14 15 15 18 15 18 16 16 16 17 17 18 17 16 14 10 8 8 8 7 6 6 7 7 8 12 13 12
7 5 6 8 8 12 12 15 18 18 16 10 4 9 7 4 3 7 11 9 25 26 24 20 13 11 12 9 11 14 15 18 18 14 17 18 16 15 17 17 16 15 13 10 8 6 5 4 3 4 5 6 7 8
9 10 14 22 26 29 26 29 18 18 8 6 8 10 21 19 10 11 12 7 18 11 19 19 13 6 10 16 16 16 19 20 19 17 18 18 17 16 16 19 27 26 19 19 13 7 3 4 4 4 4 4 5 6
7 10 17 22 16 15 18 16 14 24 29 31 13 5 11 18 18 14 8 15 18 11 2 6 8 13 14 14 13 18 21 23 25 28 26 22 22 21 20 16 22 21 12 9 23 21 14 15 13 10 5 5 4 4
5 11 10 14 11 5 11 30 36 38 38 36 37 39 40 35 28 25 21 20 20 18 19 16 16 21 22 17 20 18 21 20 21 24 27 24 23 22 23 18 19 18 17 9 8 9 16 11 9 8 7 3 2 1
6 5 6 8 11 23 29 38 44 42 44 46 36 40 46 39 31 28 29 31 34 36 35 38 34 31 26 29 34 32 25 20 25 23 21 18 19 24 25 23 18 19 18 16 12 9 11 11 9 7 6 4 2 3
8 10 10 7 20 30 35 34 46 40 30 31 40 35 38 39 28 26 16 18 26 29 34 37 37 45 40 34 36 22 17 23 27 26 23 20 19 24 25 24 23 22 20 18 14 13 12 10 9 9 8 6 4 3
10 19 25 19 11 12 27 25 25 23 17 13 26 22 17 17 8 26 21 34 25 12 19 14 21 26 36 33 20 17 28 28 32 28 28 30 26 26 23 24 23 23 22 20 17 15 14 12 11 10 9 8 7 5
Wind_Direction_500mb
338 338 339 340 337 333 334 335 334 333 330 322 319 323 323 322 330 340 340 258 249 289 294 352 2 12 359 4 337 351 311 162 273 260 273 287 296 324 304 3 311 47 292 329 350 311 252 6 4 26 343 336 348 2
340 339 340 340 338 335 335 333 332 334 333 330 325 322 322 321 324 332 1 345 280 261 283 304 307 0 12 349 333 314 305 300 349 324 15 311 338 299 287 301 39 60 43 340 17 317 168 48 151 257 326 328 328 333
341 341 340 340 339 339 336 334 331 332 334 330 326 323 318 316 319 321 314 246 275 268 282 239 218 108 14 8 358 318 12 354 10 353 317 300 308 356 4 45 35 109 24 52 316 188 338 326 187 321 321 319 317 310
343 341 340 341 339 339 336 336 335 331 331 331 328 319 314 312 313 315 298 95 239 296 282 168 256 145 14 12 16 5 349 341 319 325 330 13 28 10 41 41 26 353 324 325 282 31 338 3 314 318 313 310 297 299
342 341 342 341 340 337 338 339 337 334 331 328 324 316 311 312 317 317 185 167 196 290 306 282 219 177 74 36 27 7 342 330 298 63 38 43 47 354 100 93 47 352 349 337 315 318 308 299 302 308 307 306 300 295
342 343 342 341 340 340 341 341 341 341 333 327 319 314 309 317 318 81 253 312 189 240 283 355 253 48 217 108 53 57 9 354 315 116 86 95 56 321 56 54 273 330 18 330 322 320 318 314 312 309 304 303 296 296
343 343 341 342 341 342 344 344 348 344 336 328 322 316 309 186 164 271 79 178 191 242 260 150 192 229 243 151 181 66 11 42 12 42 75 92 116 66 84 343 346 359 352 334 320 321 314 313 312 305 299 300 299 288
343 343 342 342 343 344 346 347 346 345 342 333 344 32 108 127 109 31 169 174 329 269 261 255 163 38 243 148 108 151 44 286 52 107 165 16 124 128 144 16 356 350 334 334 333 323 313 311 307 304 302 301 297 292
342 343 343 342 344 345 346 346 349 352 355 17 80 108 113 92 310 218 295 278 283 230 304 275 9 339 329 332 99 51 355 18 22 6 78 322 40 62 48 19 358 349 357 343 330 330 329 324 316 307 301 300 293 285
343 343 343 342 345 348 347 346 349 354 13 49 16 327 285 304 265 289 289 181 207 217 252 230 304 26 295 326 57 66 237 211 95 65 316 51 85 53 29 15 3 7 351 352 343 336 338 335 332 323 312 298 291 287
342 342 341 340 342 346 345 346 348 352 4 24 325 301 261 250 281 233 228 220 135 104 299 256 5 301 317 6 48 249 12 359 106 88 313 240 95 45 13 8 25 3 5 4 354 349 346 347 351 346 346 322 304 295
342 341 338 339 341 344 345 346 347 348 347 337 303 295 356 235 230 250 289 122 217 106 273 342 39 345 72 24 214 273 205 197 117 154 242 241 64 20 2 18 11 5 4 1 2 5 5 9 25 29 35 32 6 330
343 339 337 340 342 342 345 346 346 342 341 358 344 297 226 240 359 222 349 65 40 318 9 320 37 270 113 299 303 353 242 70 156 218 97 59 38 15 13 16 1 7 4 4 9 17 23 29 33 34 42 46 52 67
343 338 337 340 344 345 343 342 344 346 355 278 250 298 248 276 263 83 37 62 40 350 355 342 324 12 358 39 352 298 58 294 326 357 37 76 17 6 23 10 2 6 8 9 16 20 28 36 41 47 49 53 55 57
342 338 333 343 343 337 332 336 343 344 347 272 269 256 264 183 162 50 58 38 16 353 354 337 84 285 80 205 60 36 254 337 45 35 101 49 22 28 16 10 16 6 13 15 23 28 33 33 35 39 44 47 52 55
341 342 332 324 330 336 330 331 342 3 267 260 250 268 274 91 38 22 53 13 341 348 340 278 158 32 322 328 239 53 27 327 20 41 68 47 41 30 24 39 18 21 26 28 31 31 39 40 41 44 46 51 51 52
339 329 323 331 336 340 328 345 335 270 271 261 253 231 261 151 257 245 41 30 358 323 325 338 326 49 297 312 43 61 304 27 42 68 73 71 64 59 56 32 45 44 45 43 39 44 47 51 50 47 44 42 44 48
331 325 331 328 336 346 335 320 289 272 256 247 283 316 295 172 69 27 351 353 343 344 14 32 292 265 37 359 25 328 47 81 92 96 87 88 94 83 63 66 60 54 44 49 57 55 56 51 45 45 44 45 46 47
327 322 328 333 336 335 307 237 239 271 274 292 297 261 279 202 141 205 239 76 16 323 288 83 17 13 20 99 341 61 68 60 111 112 117 115 110 85 99 87 77 60 61 63 60 57 51 50 46 43 41 43 48 45
319 313 325 334 331 320 279 229 231 262 270 292 282 274 307 276 263 236 215 216 233 137 301 300 65 45 49 85 72 84 83 125 183 162 147 133 122 111 115 106 105 106 83 65 55 61 56 55 54 48 53 57 52 47
355 333 321 333 321 273 264 283 245 275 285 266 272 268 272 258 269 325 229 231 132 158 269 222 107 112 109 115 122 124 110 99 115 50 116 140 152 150 127 130 102 106 116 69 67 61 60 58 58 52 54 50 52 53
317 314 315 284 270 265 268 243 267 293 274 269 280 266 247 237 252 241 241 205 231 232 225 147 135 149 143 137 130 123 130 121 121 136 125 126 148 140 146 134 101 95 87 92 74 70 65 58 54 55 60 71 65 59
335 327 304 293 282 260 270 281 267 267 270 319 272 209 252 235 241 236 164 214 159 182 173 131 137 145 140 143 136 130 143 144 136 140 138 141 137 134 134 131 123 115 109 97 86 80 75 70 50 61 57 55 55 61
316 266 273 277 247 270 289 285 278 293 286 282 296 284 263 255 190 220 234 176 175 160 140 143 143 138 139 155 166 167 166 168 155 154 155 149 148 145 143 136 128 120 118 115 105 96 84 72 56 56 54 54 53 53
299 253 231 270 244 248 275 299 275 246 281 332 308 267 325 22 340 244 211 169 163 183 156 175 171 167 189 178 167 173 175 176 177 173 176 174 161 155 150 145 140 138 135 126 121 109 93 73 66 61 53 56 50 44
259 211 200 274 313 293 318 300 326 322 299 279 264 338 268 131 239 260 91 150 187 165 167 179 168 185 224 194 174 179 193 183 188 186 185 182 177 175 172 168 166 166 161 153 146 133 111 89 76 71 82 73 52 51
258 236 260 246 261 276 278 275 279 283 297 288 0 290 281 260 259 44 64 160 203 170 159 160 176 152 161 169 137 158 169 179 185 199 188 182 183 187 187 187 186 175 170 160 152 150 151 136 109 91 80 61 53 50
268 303 327 323 314 301 296 290 291 286 282 271 336 350 338 358 22 22 50 296 337 157 152 162 156 165 169 152 156 160 165 166 176 163 171 179 180 178 173 188 191 175 172 178 167 165 158 173 156 143 122 92 71 59
260 284 303 300 296 292 281 268 265 264 287 317 312 293 209 239 279 317 332 330 337 6 174 175 173 162 144 151 169 172 173 175 174 178 181 183 184 185 186 207 202 186 184 195 201 193 175 161 159 152 139 129 106 83
300 333 323 311 309 266 303 329 316 308 304 300 299 295 291 289 280 264 243 239 241 240 258 248 225 210 196 187 189 181 188 193 195 194 196 199 201 196 191 191 173 171 180 181 164 198 202 196 212 162 147 153 177 124
325 351 289 266 269 299 301 303 297 287 279 276 274 275 273 276 274 266 262 262 260 255 250 239 228 214 218 203 196 193 212 200 201 199 197 203 202 196 193 191 185 181 186 190 186 172 162 174 191 190 195 200 230 160
209 227 268 276 291 312 316 314 308 297 283 269 266 255 254 254 259 287 288 314 256 252 252 245 243 215 211 211 216 202 177 183 194 191 200 192 195 193 192 190 191 190 194 194 198 196 202 200 203 203 208 207 205 226
233 255 266 282 307 311 322 324 317 308 301 274 267 277 265 270 303 359 291 331 4 348 7 329 236 222 192 211 205 183 187 181 190 191 192 192 192 190 188 191 194 194 197 197 202 207 208 208 209 211 213 217 225 235
Wind_Speed_850mb
59 59 59 58 57 56 53 50 50 50 48 45 43 42 41 44 48 52 31 17 18 20 29 13 13 18 24 28 17 36 18 5 14 14 17 16 17 18 13 12 20 8 11 10 15 11 9 48 20 10 15 27 38 48
59 59 59 58 57 57 55 53 50 50 48 44 41 40 40 42 44 47 18 7 11 18 18 20 9 9 11 16 18 19 19 13 15 12 7 13 16 4 17 10 21 8 9 8 6 3 9 11 10 9 17 28 34 40
59 60 59 58 58 59 57 56 50 49 49 44 43 39 40 39 43 46 34 20 14 21 25 26 19 4 13 15 13 10 14 21 11 14 18 14 23 16 14 10 3 5 15 1 13 12 16 17 2 18 25 28 33 34
60 60 59 60 60 60 59 59 52 49 47 46 40 37 36 38 44 40 18 4 6 16 12 6 4 3 9 11 11 10 13 17 15 20 22 10 7 20 9 10 10 6 15 17 23 12 36 5 39 44 34 38 37 40
60 60 61 61 62 62 63 60 55 49 45 44 40 39 33 37 35 12 8 18 9 10 8 8 12 6 4 8 11 12 12 17 16 6 7 7 6 3 5 4 8 12 10 12 15 43 35 45 48 53 55 53 43 36
61 61 62 63 65 65 64 62 55 45 43 42 41 35 32 23 2 18 3 8 11 13 11 5 8 4 11 5 10 13 20 17 13 11 10 10 7 7 6 4 5 16 22 22 33 49 53 56 53 48 50 56 56 56
61 61 62 65 67 66 65 57 49 48 46 42 35 29 20 7 15 7 2 13 14 6 9 1 2 23 6 8 5 12 13 14 14 6 7 5 13 7 4 1 18 34 39 46 46 52 56 49 62 59 56 59 53 52
61 61 63 66 67 65 60 51 59 51 40 31 20 10 18 17 9 6 3 12 5 7 11 6 5 13 19 2 5 7 7 7 10 4 6 17 12 10 3 18 30 44 45 41 49 52 62 71 64 56 55 54 57 55
59 60 63 66 66 61 51 62 59 47 29 15 11 16 15 8 2 4 5 12 17 9 11 7 7 2 18 3 7 5 5 3 2 1 9 8 7 5 10 26 35 36 38 43 56 55 56 61 63 61 58 59 51 50
58 59 61 64 63 51 55 63 57 45 14 13 8 4 2 3 8 8 5 4 7 9 9 7 15 12 23 16 6 4 5 2 4 8 3 6 8 24 25 27 24 29 35 46 57 59 64 64 64 65 58 52 50 46
57 57 59 62 54 49 60 56 51 46 24 8 4 7 10 6 2 8 9 10 9 5 14 8 10 9 5 12 6 9 3 4 3 5 7 4 6 7 22 22 24 28 33 45 51 53 49 52 56 65 49 40 30 27
55 55 58 57 44 53 52 49 50 46 31 18 6 8 1 3 10 9 4 7 8 5 10 8 9 17 9 4 1 5 7 9 7 2 4 2 7 17 22 20 25 28 36 41 50 53 52 46 53 49 45 46 36 29
54 53 57 44 41 49 49 48 46 33 23 9 8 6 9 9 4 3 4 4 4 8 9 12 6 15 8 3 1 6 3 8 5 7 3 9 11 21 18 20 23 26 32 35 46 50 51 54 53 43 42 53 52 52
54 53 49 33 46 49 55 49 36 20 7 6 8 7 6 4 5 6 8 10 16 14 17 13 12 8 4 2 4 6 8 3 6 6 8 11 17 17 19 19 21 27 29 32 39 40 45 53 55 57 56 56 62 66
55 51 32 47 59 53 53 41 21 8 2 9 8 6 6 8 6 12 14 7 9 13 14 13 4 11 7 3 4 7 3 2 4 6 8 12 14 17 18 17 20 25 26 28 33 36 38 43 49 51 53 58 58 61
58 40 32 52 45 45 45 26 10 6 5 7 10 12 9 11 3 10 10 8 15 17 16 10 2 4 2 4 4 6 6 2 6 17 24 14 14 15 15 18 20 19 22 24 28 30 32 36 38 42 52 56 56 61
56 22 50 49 44 42 31 13 4 5 8 9 13 19 13 2 2 6 8 11 13 13 5 5 2 11 4 5 5 6 3 7 16 22 20 15 12 12 14 16 18 21 22 24 25 27 30 30 33 37 42 44 46 49
54 53 44 42 47 38 10 7 4 7 11 18 16 21 10 8 1 6 7 7 13 15 16 8 1 2 5 7 4 3 9 18 14 13 13 13 11 11 12 15 18 19 21 24 23 28 27 26 29 31 30 30 32 39
53 42 30 40 41 26 4 5 6 8 12 15 21 22 15 4 2 3 6 5 7 8 7 0 2 5 4 6 5 8 12 7 16 19 15 14 11 9 10 11 13 16 18 19 20 19 21 22 22 24 26 28 35 35
33 28 26 39 28 9 7 9 8 11 11 11 16 16 10 7 6 14 8 3 5 3 3 5 5 10 12 11 5 6 6 3 9 17 21 17 12 10 10 9 8 10 13 15 16 17 17 22 20 21 26 31 31 31
12 25 37 23 14 6 9 9 13 12 15 20 24 12 17 17 14 2 4 12 6 2 4 4 15 10 12 12 9 7 5 5 5 4 13 16 12 12 11 10 8 7 10 10 9 12 18 14 18 20 21 25 28 25
15 37 17 12 6 7 11 14 14 15 15 23 22 29 11 6 13 8 17 6 11 2 13 14 17 17 14 11 10 9 9 10 10 14 15 18 14 11 11 9 6 11 9 9 10 12 12 12 16 17 18 19 24 27
29 18 11 6 7 8 15 12 10 10 8 10 16 3 8 10 12 20 12 10 5 17 14 17 20 14 18 16 13 12 12 11 12 11 15 14 12 12 11 10 9 10 11 10 10 11 12 12 14 15 16 17 18 20
21 6 6 6 7 10 12 3 7 14 13 17 8 14 13 19 16 12 8 19 24 21 21 22 20 18 16 13 12 9 11 10 12 14 15 15 15 14 12 11 10 10 10 10 10 9 10 10 9 12 13 14 15 17
6 7 8 10 8 7 7 7 7 8 7 10 12 10 6 11 7 8 15 16 30 30 27 23 19 17 15 14 16 13 15 15 15 14 16 13 15 16 15 13 11 10 9 9 9 8 7 7 7 8 9 10 14 15
6 7 9 4 7 8 5 7 6 12 17 20 8 5 6 7 7 6 3 16 24 33 25 21 17 12 14 15 15 18 15 18 16 16 16 17 17 18 17 16 14 10 8 8 8 7 6 6 7 7 8 12 13 12
7 5 6 8 8 12 12 15 18 18 16 10 4 9 7 4 3 7 11 9 25 26 24 20 13 11 12 9 11 14 15 18 18 14 17 18 16 15 17 17 16 15 13 10 8 6 5 4 3 4 5 6 7 8
9 10 14 22 26 29 26 29 18 18 8 6 8 10 21 19 10 11 12 7 18 11 19 19 13 6 10 16 16 16 19 20 19 17 18 18 17 16 16 19 27 26 19 19 13 7 3 4 4 4 4 4 5 6
7 10 17 22 16 15 18 16 14 24 29 31 13 5 11 18 18 14 8 15 18 11 2 6 8 13 14 14 13 18 21 23 25 28 26 22 22 21 20 16 22 21 12 9 23 21 14 15 13 10 5 5 4 4
5 11 10 14 11 5 11 30 36 38 38 36 37 39 40 35 28 25 21 20 20 18 19 16 16 21 22 17 20 18 21 20 21 24 27 24 23 22 23 18 19 18 17 9 8 9 16 11 9 8 7 3 2 1
6 5 6 8 11 23 29 38 44 42 44 46 36 40 46 39 31 28 29 31 34 36 35 38 34 31 26 29 34 32 25 20 25 23 21 18 19 24 25 23 18 19 18 16 12 9 11 11 9 7 6 4 2 3
8 10 10 7 20 30 35 34 46 40 30 31 40 35 38 39 28 26 16 18 26 29 34 37 37 45 40 34 36 22 17 23 27 26 23 20 19 24 25 24 23 22 20 18 14 13 12 10 9 9 8 6 4 3
10 19 25 19 11 12 27 25 25 23 17 13 26 22 17 17 8 26 21 34 25 12 19 14 21 26 36 33 20 17 28 28 32 28 28 30 26 26 23 24 23 23 22 20 17 15 14 12 11 10 9 8 7 5
Wind_Direction_850mb
338 338 339 340 337 333 334 335 334 333 330 322 319 323 323 322 330 340 340 258 249 289 294 352 2 12 359 4 337 351 311 162 273 260 273 287 296 324 304 3 311 47 292 329 350 311 252 6 4 26 343 336 348 2
340 339 340 340 338 335 335 333 332 334 333 330 325 322 322 321 324 332 1 345 280 261 283 304 307 0 12 349 333 314 305 300 349 324 15 311 338 299 287 301 39 60 43 340 17 317 168 48 151 257 326 328 328 333
341 341 340 340 339 339 336 334 331 332 334 330 326 323 318 316 319 321 314 246 275 268 282 239 218 108 14 8 358 318 12 354 10 353 317 300 308 356 4 45 35 109 24 52 316 188 338 326 187 321 321 319 317 310
343 341 340 341 339 339 336 336 335 331 331 331 328 319 314 312 313 315 298 95 239 296 282 168 256 145 14 12 16 5 349 341 319 325 330 13 28 10 41 41 26 353 324 325 282 31 338 3 314 318 313 310 297 299
342 341 342 341 340 337 338 339 337 334 331 328 324 316 311 312 317 317 185 167 196 290 306 282 219 177 74 36 27 7 342 330 298 63 38 43 47 354 100 93 47 352 349 337 315 318 308 299 302 308 307 306 300 295
342 343 342 341 340 340 341 341 341 341 333 327 319 314 309 317 318 81 253 312 189 240 283 355 253 48 217 108 53 57 9 354 315 116 86 95 56 321 56 54 273 330 18 330 322 320 318 314 312 309 304 303 296 296
343 343 341 342 341 342 344 344 348 344 336 328 322 316 309 186 164 271 79 178 191 242 260 150 192 229 243 151 181 66 11 42 12 42 75 92 116 66 84 343 346 359 352 334 320 321 314 313 312 305 299 300 299 288
343 343 342 342 343 344 346 347 346 345 342 333 344 32 108 127 109 31 169 174 329 269 261 255 163 38 243 148 108 151 44 286 52 107 165 16 124 128 144 16 356 350 334 334 333 323 313 311 307 304 302 301 297 292
342 343 343 342 344 345 346 346 349 352 355 17 80 108 113 92 310 218 295 278 283 230 304 275 9 339 329 332 99 51 355 18 22 6 78 322 40 62 48 19 358 349 357 343 330 330 329 324 316 307 301 300 293 285
343 343 343 342 345 348 347 346 349 354 13 49 16 327 285 304 265 289 289 181 207 217 252 230 304 26 295 326 57 66 237 211 95 65 316 51 85 53 29 15 3 7 351 352 343 336 338 335 332 323 312 298 291 287
342 342 341 340 342 346 345 346 348 352 4 24 325 301 261 250 281 233 228 220 135 104 299 256 5 301 317 6 48 249 12 359 106 88 313 240 95 45 13 8 25 3 5 4 354 349 346 347 351 346 346 322 304 295
342 341 338 339 341 344 345 346 347 348 347 337 303 295 356 235 230 250 289 122 217 106 273 342 39 345 72 24 214 273 205 197 117 154 242 241 64 20 2 18 11 5 4 1 2 5 5 9 25 29 35 32 6 330
343 339 337 340 342 342 345 346 346 342 341 358 344 297 226 240 359 222 349 65 40 318 9 320 37 270 113 299 303 353 242 70 156 218 97 59 38 15 13 16 1 7 4 4 9 17 23 29 33 34 42 46 52 67
343 338 337 340 344 345 343 342 344 346 355 278 250 298 248 276 263 83 37 62 40 350 355 342 324 12 358 39 352 298 58 294 326 357 37 76 17 6 23 10 2 6 8 9 16 20 28 36 41 47 49 53 55 57
342 338 333 343 343 337 332 336 343 344 347 272 269 256 264 183 162 50 58 38 16 353 354 337 84 285 80 205 60 36 254 337 45 35 101 49 22 28 16 10 16 6 13 15 23 28 33 33 35 39 44 47 52 55
341 342 332 324 330 336 330 331 342 3 267 260 250 268 274 91 38 22 53 13 341 348 340 278 158 32 322 328 239 53 27 327 20 41 68 47 41 30 24 39 18 21 26 28 31 31 39 40 41 44 46 51 51 52
339 329 323 331 336 340 328 345 335 270 271 261 253 231 261 151 257 245 41 30 358 323 325 338 326 49 297 312 43 61 304 27 42 68 73 71 64 59 56 32 45 44 45 43 39 44 47 51 50 47 44 42 44 48
331 325 331 328 336 346 335 320 289 272 256 247 283 316 295 172 69 27 351 353 343 344 14 32 292 265 37 359 25 328 47 81 92 96 87 88 94 83 63 66 60 54 44 49 57 55 56 51 45 45 44 45 46 47
327 322 328 333 336 335 307 237 239 271 274 292 297 261 279 202 141 205 239 76 16 323 288 83 17 13 20 99 341 61 68 60 111 112 117 115 110 85 99 87 77 60 61 63 60 57 51 50 46 43 41 43 48 45
319 313 325 334 331 320 279 229 231 262 270 292 282 274 307 276 263 236 215 216 233 137 301 300 65 45 49 85 72 84 83 125 183 162 147 133 122 111 115 106 105 106 83 65 55 61 56 55 54 48 53 57 52 47
355 333 321 333 321 273 264 283 245 275 285 266 272 268 272 258 269 325 229 231 132 158 269 222 107 112 109 115 122 124 110 99 115 50 116 140 152 150 127 130 102 106 116 69 67 61 60 58 58 52 54 50 52 53
317 314 315 284 270 265 268 243 267 293 274 269 280 266 247 237 252 241 241 205 231 232 225 147 135 149 143 137 130 123 130 121 121 136 125 126 148 140 146 134 101 95 87 92 74 70 65 58 54 55 60 71 65 59
335 327 304 293 282 260 270 281 267 267 270 319 272 209 252 235 241 236 164 214 159 182 173 131 137 145 140 143 136 130 143 144 136 140 138 141 137 134 134 131 123 115 109 97 86 80 75 70 50 61 57 55 55 61
316 266 273 277 247 270 289 285 278 293 286 282 296 284 263 255 190 220 234 176 175 160 140 143 143 138 139 155 166 167 166 168 155 154 155 149 148 145 143 136 128 120 118 115 105 96 84 72 56 56 54 54 53 53
299 253 231 270 244 248 275 299 275 246 281 332 308 267 325 22 340 244 211 169 163 183 156 175 171 167 189 178 167 173 175 176 177 173 176 174 161 155 150 145 140 138 135 126 121 109 93 73 66 61 53 56 50 44
259 211 200 274 313 293 318 300 326 322 299 279 264 338 268 131 239 260 91 150 187 165 167 179 168 185 224 194 174 179 193 183 188 186 185 182 177 175 172 168 166 166 161 153 146 133 111 89 76 71 82 73 52 51
258 236 260 246 261 276 278 275 279 283 297 288 0 290 281 260 259 44 64 160 203 170 159 160 176 152 161 169 137 158 169 179 185 199 188 182 183 187 187 187 186 175 170 160 152 150 151 136 109 91 80 61 53 50
268 303 327 323 314 301 296 290 291 286 282 271 336 350 338 358 22 22 50 296 337 157 152 162 156 165 169 152 156 160 165 166 176 163 171 179 180 178 173 188 191 175 172 178 167 165 158 173 156 143 122 92 71 59
260 284 303 300 296 292 281 268 265 264 287 317 312 293 209 239 279 317 332 330 337 6 174 175 173 162 144 151 169 172 173 175 174 178 181 183 184 185 186 207 202 186 184 195 201 193 175 161 159 152 139 129 106 83
300 333 323 311 309 266 303 329 316 308 304 300 299 295 291 289 280 264 243 239 241 240 258 248 225 210 196 187 189 181 188 193 195 194 196 199 201 196 191 191 173 171 180 181 164 198 202 196 212 162 147 153 177 124
325 351 289 266 269 299 301 303 297 287 279 276 274 275 273 276 274 266 262 262 260 255 250 239 228 214 218 203 196 193 212 200 201 199 197 203 202 196 193 191 185 181 186 190 186 172 162 174 191 190 195 200 230 160
209 227 268 276 291 312 316 314 308 297 283 269 266 255 254 254 259 287 288 314 256 252 252 245 243 215 211 211 216 202 177 183 194 191 200 192 195 193 192 190 191 190 194 194 198 196 202 200 203 203 208 207 205 226
233 255 266 282 307 311 322 324 317 308 301 274 267 277 265 270 303 359 291 331 4 348 7 329 236 222 192 211 205 183 187 181 190 191 192 192 192 190 188 191 194 194 197 197 202 207 208 208 209 211 213 217 225 235